Simultaneous Nadir Overpasses (SNOs) Predictions

Prediction of SNOs near equator between AQUA and NPP Satellite Orbit:

Table of predicted SNOs near equator for the next 14.0 days since TLE Epoch: 3/27/2021
Index Date (AQUA) Time (AQUA) AQUA Lat,Lon Date (NPP) Time (NPP) NPP Lat,Lon Distance(km) Time Diff (sec)
1 03/29/2021 16:25:42 -5.87, 136.61 03/29/2021 16:15:48 -5.82, 136.31 34.42 594
2 03/29/2021 17:13:58 1.34, -54.80 03/29/2021 17:05:19 1.21, -55.37 64.40 519
3 03/29/2021 18:02:05 3.20, 113.82 03/29/2021 17:54:41 3.41, 113.00 94.16 444
4 04/01/2021 08:41:47 -4.43,-107.20 04/01/2021 08:32:17 -4.33,-107.58 43.86 570
5 04/01/2021 09:30:01 -0.22, 61.41 04/01/2021 09:21:47 -0.33, 60.76 73.80 494
6 04/04/2021 00:15:57 29.97,-164.85 04/04/2021 00:05:57 30.52,-165.50 87.46 600
7 04/04/2021 00:57:51 -2.94, 9.00 04/04/2021 00:48:46 -2.85, 8.52 53.35 545
8 04/04/2021 01:46:06 -1.65, 177.59 04/04/2021 01:38:16 -1.81, 176.86 83.14 470
9 04/06/2021 16:25:48 5.99, -43.43 04/06/2021 16:15:52 5.93, -43.72 32.78 596
10 04/06/2021 17:13:55 -1.46, 125.19 04/06/2021 17:05:14 -1.31, 124.64 62.91 521
11 04/06/2021 18:02:10 -3.13, -66.21 04/06/2021 17:54:45 -3.29, -67.03 92.53 445
12 04/09/2021 08:41:50 4.46, 72.77 04/09/2021 08:32:19 4.39, 72.40 42.32 571
13 04/09/2021 09:29:57 0.07,-118.60 04/09/2021 09:21:41 0.22,-119.24 72.34 496
